Flag for French Polynesia Weather past 2 weeks in Gambier Islands, French Polynesia

Now
77 °F

Mild.


Feels Like: 78 °F
Forecast: 78 / 83 °F
Wind: 6 mph from North

Location: Rikitea

Current Time: Jan 31, 2015 at 1:30:31 AM

Latest Report: Jan 31, 2015 at 12:00 AM


Visibility: N/A

Pressure: 30.00 "Hg

Humidity: 87%

Dew point: 73 °F

Location of Gambier IslandsLocation

Historic Weather in Gambier Islands — Graph

°F

Gambier Islands temperature yesterday

Maximum temperature yesterday: 82 °F (at 10:00 AM)
Minimum temperature yesterday: 76 °F (at 4:00 AM)
Average temperature yesterday: 78 °F

Past Weeks' High & Low Weather Summary

 TemperatureHumidityPressure
High83 °F (Jan 21, 11:00 AM)97% (Jan 20, 9:00 PM)30.05 "Hg (Jan 20, 9:00 PM)
Low72 °F (Jan 16, 8:00 AM)65% (Jan 25, 1:00 PM)29.79 "Hg (Jan 27, 3:00 AM)
Average77 °F86%29.92 "Hg
* Reported Midnight between Jan 15 and Jan 16 — Midnight between Jan 30 and Jan 31, Gambier Islands, Weather by CustomWeather, © 2014

Note: Actual official high and low records may vary slightly from our data, if they occured in-between our weather recording intervals... More about our weather records

Advertising

Gambier Islands weather history for previous 24 hours

 ConditionsComfort  
Time TempWeatherWind HumidityBarometerVisibility
12:00 AM
Jan 31
77 °FMild.6 mph87%30.00 "HgN/A
11:00 PM
Jan 30
77 °FWarm.7 mph88%30.01 "HgN/A
10:00 PM77 °FMild.7 mph87%30.01 "HgN/A
9:00 PM77 °FWarm.5 mph86%30.01 "HgN/A
8:00 PM78 °FWarm.3 mph86%30.00 "HgN/A
7:00 PM78 °FWarm.5 mph86%29.99 "HgN/A
6:00 PM78 °FWarm.7 mph83%29.96 "HgN/A
5:00 PM78 °FOvercast.7 mph84%29.95 "Hg19 mi
4:00 PM78 °FWarm.5 mph83%29.95 "HgN/A
3:00 PM79 °FOvercast.5 mph82%29.96 "Hg19 mi
2:00 PM79 °FOvercast.6 mph84%29.97 "Hg19 mi
1:00 PM80 °FOvercast.8 mph79%29.98 "Hg19 mi
12:00 PM81 °FOvercast.6 mph78%30.00 "Hg19 mi
11:00 AM80 °FOvercast.6 mph79%30.02 "Hg19 mi
10:00 AM82 °FOvercast.7 mph76%30.02 "Hg19 mi
9:00 AM80 °FOvercast.7 mph79%30.02 "Hg19 mi
8:00 AM78 °FOvercast.5 mph83%30.03 "Hg19 mi
7:00 AM77 °FPartly sunny.7 mph82%30.01 "Hg19 mi
6:00 AM77 °FPartly sunny.7 mph83%30.00 "Hg19 mi
5:00 AM77 °FMild.7 mph83%29.98 "HgN/A
4:00 AM76 °FMild.7 mph83%29.96 "HgN/A
3:00 AM76 °FMild.7 mph85%29.96 "HgN/A
2:00 AM76 °FMild.7 mph85%29.97 "HgN/A
1:00 AM76 °FMild.7 mph85%29.98 "HgN/A
Weather by CustomWeather, © 2014

See weather overviewHow to use our weather pages